Airfield :
LOGIN :

Register | Disclaimer

   EN    FR    IT 

 










Legend :    VFR   Marginal VFR   IFR   Intensive IFR   Very Intensive IFR
Visi :
Ceiling :
>= 8 km
>= 3000ft
5 to 8 km
1000 to 3000 ft
1500m to 5 km
500 to 1000 ft
800 to 1500m
200 to 500 ft
< 800m
< 200 ft
Symbols :   Thunderstorms  Fog  Heavy snow  Heavy precipitations  Wind > 20 kt
SIGMETs :     Misc.  Thunderstorms  Icing  Turbulence  Mountain Waves  Volcanic Ashes






- Airport Elevation : 3245 ft
- IATA code : TID


DAOB - Bou Chekif - Tiaret

CURRENT METAR :
  • 250900Z 35004KT CAVOK 28/03 Q1017

EXPIRED METARs :
  • 250600Z 30003KT CAVOK 20/08 Q1016
  • 250500Z 23004KT CAVOK 17/08 Q1016
  • 250400Z 24005KT CAVOK 18/08 Q1016

TAF TAF DAOB
Valid from the 25 at 06:00 until the 26 at 06:00 UTC


250500Z 2506/2606 VRB02KT CAVOK
BECMG 2512/2515 35012KT
BECMG 2521/2524 09012KT



MET'MAP, your aeronautical weather chart ! - Copyright ORBIFLY December 2007 - Disclaimer

ORBIFLY MET'MAP TEAM :

Programming & Development : Alexandra Zaïnal
Original concept : Baudouin d'Aumeries
Technical & hardware support : Manuel Goepfert
Assistance : Marc-Olivier Méhu




SOURCES & CREDITS :

   NOAA